Regional Weather Roundup
Issued by NWS Columbia, SC

Home | Current Version | Previous Version | Text Only | Print | Product List | Glossary On
Versions: 1 2 3 4 5 6 7 8 9 10 11 12 13 14 15 16 17 18 19 20 21 22 23 24 25 26 27 28
000
ASUS42 KCAE 240910
RWRCAE
REGIONAL WEATHER ROUNDUP
NATIONAL WEATHER SERVICE COLUMBIA SC
400 AM EST SAT FEB 24 2018

NOTE: "FAIR" INDICATES FEW OR NO CLOUDS BELOW 12,000 FEET WITH NO
SIGNIFICANT WEATHER AND/OR OBSTRUCTIONS TO VISIBILITY.

NOT ALL STATIONS ARE QUALITY CONTROLLED BY THE NATIONAL
WEATHER SERVICE. USE DATA WITH CAUTION...ESPECIALLY
DEWPOINT OBSERVATIONS.

SCZ001>056-GAZ040-063>065-077-241000-
...UPSTATE SOUTH CAROLINA...

CITY           SKY/WX    TMP DP  RH WIND       PRES   REMARKS
ANDERSON       FAIR      60  57  89 CALM      30.22F
LIBERTY        FAIR      53  53 100 CALM      30.21F
SPARTANBURG    FAIR      59  54  82 W5        30.23F
CLEMSON        MOCLDY    59  57  93 CALM      30.23F
GREENVILLE     FAIR      62  57  83 W3        30.24F
GREENWOOD      FAIR      60  59  96 S6        30.24F
GREER          FAIR      58  56  93 CALM      30.23F
ROCK HILL      FAIR      56  55  97 SW3       30.23F
CHESTER        FAIR      59  59 100 S3        30.24F
LAURENS        PTSUNNY   59  57  94 SW6       30.24F


...CENTRAL SOUTH CAROLINA...

CITY           SKY/WX    TMP DP  RH WIND       PRES   REMARKS
COLUMBIA APT   MOCLDY    60  60 100 CALM      30.23F FOG
COLUMBIA OWENS MOCLDY    59  59 100 CALM      30.25F
MCENTIRE ANGB  FOG       57  57 100 CALM      30.25F VSB 1/4
ORANGEBURG     CLOUDY    62  61  96 S9        30.25F
SUMTER SHAW    FOG       61  61 100 CALM      30.23F VSB 3/4
NEWBERRY       FAIR      57  57 100 S5        30.26F
AIKEN          FAIR      57  57 100 S5        30.28F FOG
BARNWELL       FOG       59  59 100 CALM      30.25F VSB 1/2
MANNING        CLOUDY    61  59  94 MISG      30.26S
CAMDEN         CLOUDY    61  61 100 CALM      30.25F FOG
LANCASTER      FOG       57  57 100 CALM      30.25S VSB 3/4
WINNSBORO      FAIR      61  59  94 S3        30.24F


...EASTERN AND COASTAL SOUTH CAROLINA...

CITY           SKY/WX    TMP DP  RH WIND       PRES   REMARKS
MYRTLE BEACH   FAIR      64  63  96 SW6       30.27F
N MYRTLE BCH   FAIR      63  62  97 SW7       30.26F
CONWAY         RAIN      59  59 100 CALM      30.27S VSB 1/4
MARION         FOG       61  61 100 S6        30.26S VSB 1/2
HARTSVILLE     CLOUDY    61  61 100 SW5       30.25F FOG
FLORENCE       CLOUDY    63  62  97 SW7       30.26S FOG
DARLINGTON     CLOUDY    62  61  96 S7        30.26F
CHARLESTON APT FAIR      64  63  96 S6        30.25F
MOUNT PLEASANT FAIR      63  63 100 CALM      30.25F FOG
WALTERBORO     FOG       57  57 100 CALM      30.26F VSB 1/4
BEAUFORT       FAIR      66  66 100 S5        30.25


...EASTERN GEORGIA...

CITY           SKY/WX    TMP DP  RH WIND       PRES   REMARKS
AUGUSTA BUSH F FOG       54  54 100 CALM      30.23F VSB 1/2
AUGUSTA DANIEL FAIR      62  61  96 SE5       30.24F
THOMSON        FAIR      60  60  97 SW3       30.28F
WASHINGTON     FAIR      59  59 100 CALM      30.22F
CLAXTON        FOG       58  58  99 CALM      30.25F VSB 1/4
SYLVANIA       FOG       61  61 100 CALM      30.26F VSB 3/4
STATESBORO     FOG       59  32  36 CALM      30.25F VSB 1
SAVANNAH       FAIR      61  61 100 CALM      30.24F FOG


...SOUTHERN NORTH CAROLINA...

CITY           SKY/WX    TMP DP  RH WIND       PRES   REMARKS
CHARLOTTE      FAIR      58  56  93 S5        30.23F
MONROE         FAIR      59  58  96 S5        30.23F
WADESBORO      PTSUNNY   57  56  95 CALM      30.23F FOG
ROCKINGHAM     CLOUDY    60  60 100 S6        30.25S FOG
RUTHERFORDTON  FAIR      54  54 100 CALM      30.24F
ASHEVILLE      FAIR      56  53  90 CALM      30.25F

$$




USA.gov is the U.S. government's official web portal to all federal, state and local government web resources and services.